Dumas, TX

12:11 PM CDT on March 30, 2017 (GMT -0500)
Moore County

Weather History for KDUX - July, 2013

Change the Weather History Date:

Saturday, July 6, 2013

  Actual Average (KDHT) Record (KDHT)
Temperature  
Mean Temperature 84 °F -  
Max Temperature 96 °F 89 °F 106 °F (2016)
Min Temperature 72 °F 61 °F 50 °F (1958)
Cooling Degree Days 18    
Growing Degree Days 34 (Base 50)    
Moisture  
Dew Point 49 °F    
Average Humidity 31    
Maximum Humidity 48    
Minimum Humidity 20    
Precipitation  
Precipitation 0.00 in - - ()
Sea Level Pressure  
Sea Level Pressure 29.93 in    
Wind  
Wind Speed 19 mph (South)    
Max Wind Speed 30 mph    
Max Gust Speed 40 mph    
Visibility 10 miles    
Events      
Averages and records for this station are not official NWS values.
T = Trace of Precipitation, MM = Missing Value Source: NWS Daily Summary

Daily Weather History Graph

Daily Weather History Graph

Search for Another Location

Airport or City:

Trip Planner

Search our weather history database for the weather conditions in past years. The results will help you decide how hot, cold, wet, or windy it might be!

Date:

Astronomy

Jul. 06, 2013 Rise Set
Actual Time 6:37 AM CDT 9:07 PM CDT
Civil Twilight 6:08 AM CDT 9:37 PM CDT
Nautical Twilight 5:31 AM CDT 10:14 PM CDT
Astronomical Twilight 4:50 AM CDT 10:54 PM CDT
Moon 5:23 AM CDT (7/6) 7:52 PM CDT (7/6)
Length of Visible Light 15h 29m
Length of Day
14h 29m
Waning Crescent, 2% of the Moon is Illuminated
Jul 6
Waning Crescent
Jul 8
New
Jul 15
First Quarter
Jul 22
Full
Jul 29
Last Quarter

Hourly Weather History & Observations

Time (CDT) Temp. Dew Point Humidity Pressure Visibility Wind Dir Wind Speed Gust Speed Precip Events Conditions
12:15 AM 80.8 °F 47.7 °F 31% 29.93 in 10.0 mi South 18.4 mph 24.2 mph N/A   Clear
12:35 AM 80.6 °F 47.3 °F 31% 29.93 in 10.0 mi South 18.4 mph - N/A   Clear
12:55 AM 79.9 °F 47.3 °F 32% 29.93 in 10.0 mi South 18.4 mph - N/A   Clear
1:15 AM 79.7 °F 47.5 °F 32% 29.94 in 10.0 mi South 18.4 mph 23.0 mph N/A   Clear
1:35 AM 79.2 °F 47.3 °F 33% 29.94 in 10.0 mi South 17.3 mph 25.3 mph N/A   Clear
1:55 AM 78.3 °F 47.3 °F 34% 29.95 in 10.0 mi South 17.3 mph 20.7 mph N/A   Clear
2:15 AM 78.1 °F 47.1 °F 33% 29.95 in 10.0 mi South 17.3 mph 25.3 mph N/A   Clear
2:35 AM 77.4 °F 47.1 °F 34% 29.95 in 10.0 mi South 13.8 mph 19.6 mph N/A   Clear
2:55 AM 77.2 °F 46.6 °F 34% 29.95 in 10.0 mi South 15.0 mph 19.6 mph N/A   Clear
3:15 AM 77.0 °F 46.4 °F 34% 29.95 in 10.0 mi South 16.1 mph 20.7 mph N/A   Clear
3:35 AM 76.5 °F 46.4 °F 34% 29.93 in 10.0 mi South 16.1 mph - N/A   Clear
3:55 AM 75.9 °F 46.8 °F 36% 29.93 in 10.0 mi South 17.3 mph - N/A   Clear
4:15 AM 75.4 °F 47.1 °F 37% 29.92 in 10.0 mi South 16.1 mph - N/A   Clear
4:35 AM 75.0 °F 47.3 °F 37% 29.91 in 10.0 mi South 19.6 mph 23.0 mph N/A   Clear
4:55 AM 74.5 °F 47.8 °F 39% 29.91 in 10.0 mi South 15.0 mph - N/A   Clear
5:15 AM 73.9 °F 48.6 °F 41% 29.91 in 10.0 mi South 16.1 mph - N/A   Clear
5:35 AM 73.9 °F 49.6 °F 42% 29.91 in 10.0 mi South 17.3 mph 21.9 mph N/A   Clear
5:55 AM 73.8 °F 50.4 °F 44% 29.91 in 10.0 mi South 17.3 mph - N/A   Clear
6:15 AM 73.4 °F 50.9 °F 45% 29.92 in 10.0 mi South 16.1 mph - N/A   Clear
6:35 AM 73.2 °F 51.3 °F 46% 29.93 in 10.0 mi South 15.0 mph - N/A   Clear
6:55 AM 72.5 °F 51.8 °F 48% 29.93 in 10.0 mi South 15.0 mph - N/A   Clear
7:15 AM 72.5 °F 51.8 °F 48% 29.92 in 10.0 mi South 16.1 mph 20.7 mph N/A   Clear
7:35 AM 73.8 °F 51.3 °F 45% 29.93 in 10.0 mi SSW 18.4 mph - N/A   Clear
7:55 AM 74.3 °F 51.1 °F 44% 29.93 in 10.0 mi SSW 17.3 mph - N/A   Clear
8:15 AM 74.8 °F 50.9 °F 43% 29.93 in 10.0 mi SSW 15.0 mph 21.9 mph N/A   Clear
8:35 AM 75.2 °F 50.4 °F 42% 29.94 in 10.0 mi SSW 18.4 mph 23.0 mph N/A   Clear
8:55 AM 75.2 °F 50.7 °F 42% 29.95 in 10.0 mi South 17.3 mph - N/A   Clear
9:15 AM 75.7 °F 51.1 °F 42% 29.95 in 10.0 mi South 19.6 mph 26.5 mph N/A   Clear
9:35 AM 77.2 °F 52.2 °F 42% 29.95 in 10.0 mi South 20.7 mph 27.6 mph N/A   Clear
9:55 AM 80.6 °F 51.8 °F 37% 29.95 in 10.0 mi South 26.5 mph 32.2 mph N/A   Clear
10:15 AM 81.9 °F 51.4 °F 35% 29.95 in 10.0 mi SSW 27.6 mph 34.5 mph N/A   Clear
10:35 AM 83.3 °F 51.3 °F 33% 29.95 in 10.0 mi SSW 29.9 mph 34.5 mph N/A   Clear
10:55 AM 84.6 °F 50.7 °F 31% 29.95 in 10.0 mi SSW 26.5 mph 34.5 mph N/A   Clear
11:15 AM 85.6 °F 51.1 °F 30% 29.95 in 10.0 mi SSW 25.3 mph 28.8 mph N/A   Clear
11:35 AM 87.3 °F 50.7 °F 28% 29.95 in 10.0 mi SSW 26.5 mph 32.2 mph N/A   Clear
11:55 AM 88.3 °F 50.7 °F 27% 29.95 in 10.0 mi SSW 23.0 mph 27.6 mph N/A   Clear
12:15 PM 89.8 °F 50.2 °F 26% 29.95 in 10.0 mi SSW 25.3 mph 31.1 mph N/A   Clear
12:35 PM 88.3 °F 50.0 °F 27% 29.95 in 10.0 mi SSW 24.2 mph 28.8 mph N/A   Clear
12:55 PM 90.3 °F 49.6 °F 25% 29.95 in 10.0 mi SSW 21.9 mph 29.9 mph N/A   Clear
1:15 PM 91.6 °F 50.0 °F 24% 29.95 in 10.0 mi SSW 21.9 mph 32.2 mph N/A   Clear
1:35 PM 92.5 °F 49.8 °F 23% 29.95 in 10.0 mi SSW 20.7 mph 31.1 mph N/A   Clear
1:55 PM 92.3 °F 50.5 °F 24% 29.93 in 10.0 mi SSW 19.6 mph 29.9 mph N/A   Clear
2:15 PM 93.6 °F 50.7 °F 23% 29.93 in 10.0 mi South 21.9 mph 29.9 mph N/A   Clear
2:35 PM 93.4 °F 50.9 °F 23% 29.92 in 10.0 mi South 20.7 mph 32.2 mph N/A   Clear
2:55 PM 94.3 °F 50.4 °F 22% 29.91 in 10.0 mi South 26.5 mph 33.4 mph N/A   Clear
3:15 PM 94.8 °F 49.8 °F 22% 29.91 in 10.0 mi South 23.0 mph 26.5 mph N/A   Clear
3:35 PM 95.4 °F 49.6 °F 21% 29.91 in 10.0 mi South 18.4 mph 31.1 mph N/A   Clear
3:55 PM 94.8 °F 49.6 °F 21% 29.91 in 10.0 mi SSW 21.9 mph 27.6 mph N/A   Clear
4:15 PM 95.4 °F 50.2 °F 21% 29.91 in 10.0 mi SSW 20.7 mph 28.8 mph N/A   Clear
4:35 PM 95.7 °F 50.0 °F 21% 29.90 in 10.0 mi SSW 25.3 mph 32.2 mph N/A   Clear
4:55 PM 95.5 °F 49.8 °F 21% 29.89 in 10.0 mi South 20.7 mph 29.9 mph N/A   Clear
5:15 PM 95.2 °F 49.5 °F 21% 29.89 in 10.0 mi South 25.3 mph 36.8 mph N/A   Clear
5:35 PM 94.8 °F 48.9 °F 21% 29.89 in 10.0 mi South 20.7 mph 40.3 mph N/A   Clear
5:55 PM 95.0 °F 48.6 °F 20% 29.89 in 10.0 mi South 21.9 mph 28.8 mph N/A   Clear
6:15 PM 94.3 °F 48.2 °F 21% 29.89 in 10.0 mi South 24.2 mph 29.9 mph N/A   Clear
6:35 PM 93.6 °F 47.7 °F 21% 29.89 in 10.0 mi South 25.3 mph 31.1 mph N/A   Clear
6:55 PM 92.3 °F 47.1 °F 21% 29.89 in 10.0 mi South 17.3 mph - N/A   Clear
7:15 PM 91.8 °F 47.1 °F 21% 29.89 in 10.0 mi South 18.4 mph 24.2 mph N/A   Clear
7:35 PM 90.9 °F 46.9 °F 22% 29.90 in 10.0 mi South 18.4 mph 23.0 mph N/A   Clear
7:55 PM 89.6 °F 46.6 °F 23% 29.90 in 10.0 mi South 16.1 mph - N/A   Clear
8:15 PM 88.9 °F 46.8 °F 23% 29.91 in 10.0 mi South 15.0 mph 23.0 mph N/A   Clear
8:35 PM 87.8 °F 46.8 °F 24% 29.91 in 10.0 mi South 16.1 mph - N/A   Clear
8:55 PM 86.5 °F 46.9 °F 25% 29.92 in 10.0 mi South 15.0 mph 20.7 mph N/A   Clear
9:15 PM 85.6 °F 46.9 °F 26% 29.93 in 10.0 mi South 13.8 mph - N/A   Clear
9:35 PM 84.4 °F 46.6 °F 27% 29.93 in 10.0 mi SSE 12.7 mph - N/A   Clear
9:55 PM 84.2 °F 46.6 °F 27% 29.94 in 10.0 mi South 13.8 mph - N/A   Clear
10:15 PM 83.3 °F 46.4 °F 27% 29.95 in 10.0 mi SSE 15.0 mph - N/A   Clear
10:35 PM 82.9 °F 45.5 °F 27% 29.96 in 10.0 mi SSE 15.0 mph - N/A   Clear
10:55 PM 82.6 °F 45.0 °F 27% 29.96 in 10.0 mi SSE 16.1 mph - N/A   Clear
11:15 PM 81.7 °F 45.5 °F 28% 29.97 in 10.0 mi SSE 15.0 mph - N/A   Clear
11:35 PM 81.1 °F 45.5 °F 28% 29.98 in 10.0 mi SSE 15.0 mph - N/A   Clear
11:55 PM 80.1 °F 45.5 °F 30% 29.98 in 10.0 mi South 13.8 mph - N/A   Clear